Regional Weather Roundup
Issued by NWS

Home | Current Version | Previous Version | Graphics & Text | Print | Product List | Glossary On
Versions: 1 2 3 4 5 6 7 8 9 10 11 12 13 14 15 16 17 18 19 20 21 22 23 24 25 26 27 28 29 30 31 32 33 34 35 36 37 38 39 40 41 42 43 44 45 46 47 48 49 50
000
ASUS44 KMEG 210200
RWRTN
TENNESSEE HOURLY STATE WEATHER ROUNDUP
NATIONAL WEATHER SERVICE MEMPHIS TN
900 PM CDT SAT SEP 20 2014

TNZ002-004-019-021-049-052-054-088>092-210300-
WEST TENNESSEE

CITY           SKY/WX    TMP DP  RH WIND       PRES   REMARKS
MEMPHIS INTL   PTCLDY    81  67  62 SE6       30.00R
NWS MEMPHIS      N/A     74 N/A N/A MISG        N/A
JACKSON        CLEAR     71  68  90 S3        30.01R
DYERSBURG      CLEAR     72  61  68 CALM      30.00R
UNION CITY     CLEAR     70  66  88 S3        29.98S
PARIS          CLEAR     66  64  94 CALM      30.01R
SAVANNAH       CLEAR     70  70 100 CALM      30.03R
$$

TNZ008-025-027-028-033-062-065-066-210300-
NORTH MIDDLE TENNESSEE

CITY           SKY/WX    TMP DP  RH WIND       PRES   REMARKS
NASHVILLE      PTCLDY    73  66  78 S3        30.03R
CLARKSVILLE    CLEAR     73  66  78 S5        30.00R
COOKEVILLE     CLEAR     63  63 100 CALM      30.06R
CROSSVILLE     CLEAR     67  62  84 W3        30.10R
$$

TNZ061-075-076-078-094-096-097-210300-
SOUTH MIDDLE TENNESSEE

CITY           SKY/WX    TMP DP  RH WIND       PRES   REMARKS
SHELBYVILLE    MOCLDY    72  66  83 CALM      30.06R
$$

TNZ017-018-042-046-047-210300-
NORTHEAST TENNESSEE

CITY           SKY/WX    TMP DP  RH WIND       PRES   REMARKS
TRI CITIES     CLEAR     62  56  80 CALM      30.07R
ELIZABETHTON   CLEAR     57  54  88 CALM      30.09R
$$

TNZ012-013-036-069-073-074-210300-
CENTRAL EAST TENNESSEE

CITY           SKY/WX    TMP DP  RH WIND       PRES   REMARKS
KNOXVILLE      CLEAR     72  59  63 CALM      30.04R
OAK RIDGE      CLEAR     70  64  81 CALM      30.06R
GATLINBURG     CLEAR     66  61  82 CALM      30.05R
$$

TNZ083-085-099-210300-
SOUTHEAST TENNESSEE

CITY           SKY/WX    TMP DP  RH WIND       PRES   REMARKS
CHATTANOOGA    PTCLDY    72  63  73 CALM      30.04R
$$

SKY/WX REPORTED AS FAIR MEANS FEW OR NO CLOUDS BELOW
12 THOUSAND FEET.



USA.gov is the U.S. government's official web portal to all federal, state and local government web resources and services.